This demonstration page uses our WeatherBlox Daily Observations layout. Learn more.

Left ArrowRight Arrow

34.02893, -84.19858

Hourly Observations for April 14, 2019

Temp ( °F °C ) Dew Point ( °F °C ) Humidity (%) Winds ( mph kmh ) Pressure ( in mb ) Visibility ( mi km ) Precip ( " mm )
12:53 am 00:53 Mostly Clear 72 22.2 64 17.8 76 76 SE 8 13 29.81 1010 10 16 0.00 0.00
1:53 am 01:53 Mostly Cloudy 71 21.7 65 18.3 81 81 SSE 10 17 29.81 1010 10 16 0.00 0.00
2:53 am 02:53 Mostly Cloudy 70 21.1 65 18.3 84 84 SSE 8 13 29.79 1009 10 16 0.00 0.00
3:25 am 03:25 Cloudy 70 21.1 65 18.3 84 84 SSE 8 13 29.79 1009 10 16 0.00 0.00
3:53 am 03:53 Mostly Cloudy 70 21.1 65 18.3 84 84 SSE 9 15 29.77 1008 10 16 0.00 0.00
4:53 am 04:53 Mostly Cloudy 69 20.6 65 18.3 87 87 S 12 19 29.75 1008 10 16 0.02 0.51
5:53 am 05:53 Clear 69 20.6 65 18.3 87 87 SSE 12 19 29.73 1007 10 16 0.00 0.00
6:53 am 06:53 Mostly Clear 69 20.6 65 18.3 87 87 SSE 13 20 29.71 1006 10 16 0.00 0.00
7:53 am 07:53 Mostly Cloudy 69 20.6 65 18.3 87 87 SSE 14 22 29.69 1005 10 16 0.00 0.00
8:01 am 08:01 Mostly Cloudy 69 20.6 65 18.3 87 87 SSE 12 19 29.68 1005 10 16 0.00 0.00
8:22 am 08:22 Partly Cloudy 69 20.6 65 18.3 87 87 SSE 12 19 29.69 1005 10 16 0.00 0.00
8:53 am 08:53 Mostly Cloudy with Light Rain 68 20 66 18.9 93 93 SSE 14 22 29.70 1006 7 11 0.01 0.25
9:28 am 09:28 Cloudy with Rain 68 20 66 18.9 93 93 S 9 15 29.73 1007 4 6 0.06 1.52
9:33 am 09:33 Cloudy with Rain 68 20 66 18.9 93 93 SSE 9 15 29.73 1007 3 4 0.08 2.03
9:44 am 09:44 Cloudy with Rain 68 20 66 18.9 93 93 S 13 20 29.72 1007 2 3 0.13 3.30
9:53 am 09:53 Cloudy with Rain 68 20 66 18.9 93 93 S 14 22 29.72 1006 2 3 0.19 4.83
10:04 am 10:04 Cloudy with Light Rain 68 20 66 18.9 93 93 S 13 20 29.71 1006 3 5 0.03 0.76
10:15 am 10:15 Cloudy with Rain 68 20 67 19.4 96 96 S 12 19 29.72 1007 4 6 0.06 1.52
10:33 am 10:33 Cloudy with Rain 68 20 67 19.4 96 96 S 12 19 29.72 1007 2 3 0.14 3.56
10:36 am 10:36 Cloudy with Heavy Rain 68 20 67 19.4 96 96 S 12 19 29.72 1007 1 2 0.19 4.83
10:43 am 10:43 Cloudy with Heavy Rain 68 20 67 19.4 96 96 VRB 5 7 29.71 1006 1 1 0.29 7.37
10:53 am 10:53 Cloudy with Rain 68 20 67 19.4 96 96 S 17 28 29.70 1006 1 1 0.46 11.68
10:56 am 10:56 Cloudy with Rain 68 20 66 18.9 93 93 S 15 24 29.71 1006 1 2 0.00 0.03
10:58 am 10:58 Cloudy with Light Rain 68 20 66 18.9 93 93 SSE 10 17 29.70 1006 2 3 0.00 0.03
11:06 am 11:06 Cloudy with Rain 68 20 67 19.4 96 96 SSE 7 11 29.69 1006 3 5 0.03 0.76
11:16 am 11:16 Cloudy with Rain 68 20 67 19.4 96 96 S 9 15 29.70 1006 3 4 0.06 1.52
11:20 am 11:20 Cloudy with Light Rain 68 20 67 19.4 96 96 SSE 9 15 29.69 1006 3 5 0.06 1.52
11:27 am 11:27 Cloudy with Heavy Rain 68 20 66 18.9 93 93 SSE 15 24 29.69 1006 2 3 0.13 3.30
11:34 am 11:34 Cloudy with Light Rain 68 20 67 19.4 96 96 SSE 13 20 29.69 1006 2 3 0.14 3.56
11:42 am 11:42 Cloudy with Heavy Rain 68 20 67 19.4 96 96 SSE 12 19 29.67 1005 2 3 0.19 4.83
11:50 am 11:50 Cloudy with Rain 68 20 66 19 94 94 SSE 8 13 29.65 1004 2 3 0.21 5.33
11:53 am 11:53 Cloudy with Light Rain 67 19.4 66 18.9 97 97 SSE 9 15 29.65 1004 3 4 0.21 5.33
12:10 pm 12:10 Cloudy with Nearby Thunderstorms 68 20 66 18.9 93 93 SSE 21 33 29.66 1005 3 4 0.02 0.51
12:25 pm 12:25 Cloudy with Light Rain 67 19.4 66 18.9 97 97 S 16 26 29.68 1005 3 4 0.06 1.52
12:31 pm 12:31 Cloudy with Nearby Thunderstorms 68 20 66 18.9 93 93 S 20 31 29.67 1005 3 4 0.07 1.78
12:38 pm 12:38 Cloudy with Nearby Thunderstorms 67 19.4 65 18.3 93 93 S 21 33 29.68 1005 3 4 0.08 2.03
12:53 pm 12:53 Cloudy with Light Rain 66 18.9 64 17.8 93 93 S 12 19 29.65 1004 3 4 0.10 2.54
1:00 pm 13:00 Cloudy with Light Rain 67 19.4 65 18.3 93 93 S 10 17 29.67 1005 10 16 0.01 0.25
1:53 pm 13:53 Mostly Cloudy 72 22.2 68 20 87 87 S 16 26 29.61 1003 10 16 0.01 0.25
2:53 pm 14:53 Mostly Cloudy 75 23.9 67 19.4 76 76 S 14 22 29.58 1002 10 16 0.00 0.00
3:53 pm 15:53 Partly Cloudy 76 24.4 64 17.8 67 67 SSW 25 41 29.56 1001 10 16 0.00 0.00
4:53 pm 16:53 Mostly Sunny 76 24.4 60 15.6 58 58 S 20 31 29.52 1000 10 16 0.00 0.00
5:53 pm 17:53 Mostly Cloudy 75 23.9 59 15 58 58 SSW 22 35 29.52 1000 10 16 0.00 0.00
6:53 pm 18:53 Cloudy with Light Rain 72 22.2 61 16.1 68 68 WSW 14 22 29.53 1000 7 11 0.00 0.03
6:58 pm 18:58 Cloudy with Heavy Rain 69 20.6 62 16.7 78 78 WSW 24 39 29.57 1001 1 1 0.21 5.33
7:05 pm 19:05 Cloudy with Rain 65 18.3 60 15.6 84 84 WSW 12 19 29.57 1001 1 1 0.24 6.10
7:07 pm 19:07 Cloudy with Light Rain 65 18.3 60 15.6 84 84 W 13 20 29.57 1001 1 2 0.25 6.35
7:10 pm 19:10 Cloudy with Light Rain 65 18.3 59 15 81 81 W 13 20 29.56 1001 4 6 0.25 6.35
7:36 pm 19:36 Mostly Cloudy with Nearby Thunderstorms 65 18.3 61 16.1 87 87 W 7 11 29.56 1001 10 16 0.27 6.86
7:53 pm 19:53 Mostly Cloudy 64 17.8 61 16.1 90 90 S 9 15 29.60 1002 10 16 0.27 6.86
8:53 pm 20:53 Cloudy 62 16.7 52 11.1 70 70 W 17 28 29.65 1004 10 16 0.00 0.00
9:53 pm 21:53 Cloudy 58 14.4 46 7.8 65 65 W 15 24 29.72 1006 10 16 0.00 0.00
10:53 pm 22:53 Cloudy 56 13.3 47 8.3 72 72 W 17 28 29.76 1008 10 16 0.00 0.00
11:26 pm 23:26 Cloudy 55 12.8 48 8.9 77 77 W 17 28 29.79 1009 10 16 0.00 0.00
11:53 pm 23:53 Cloudy 52 11.1 47 8.3 83 83 WNW 17 28 29.80 1009 10 16 0.01 0.25

Powered by AerisWeather